Meteo Giornale » Osservazioni meteo Italia » Rimini

ore: 00:50 - Osservazioni Meteo Rimini
Lat. 44° 2' N Lon. 12° 37' E Alt. 12 metri s.l.m.

poco_nuvoloso Europe/Rome

16 °C

Poco Nuvoloso

Temp. 24 Ore

12 °C

20 °C

Sud/Sud-Ovest

13 Km/h

Dew point 7 °C

Umidità 55 %

Visibilità  10 Km

Il sole sorge alle ore 05:40

Il sole tramonta alle ore 20:31

Data e Ora Cielo e Fenomeni T °C DP °C Um. % Pres. hPa Vis. km Vento km/h
Oggi h: 00:50 poco_nuvoloso Poco Nuvoloso 16 7 55 1009 10 S/SO 13
Oggi h: 00:20 molto_nuvoloso Molto Nuvoloso 17 8 55 1009 10 SO 11.1
Ieri h: 23:50 coperto Coperto 17 8 55 1009 10 SO 13
Ieri h: 23:20 coperto Coperto 17 8 55 1009 10 S/SO 18.5
Ieri h: 22:50 coperto Coperto 17 7 51 1010 10 SO 14.8
Ieri h: 22:20 coperto Coperto 18 6 45 1010 10 SO 14.8
Ieri h: 21:50 molto_nuvoloso Molto Nuvoloso 18 6 45 1010 10 O 18.5
Ieri h: 21:20 molto_nuvoloso Molto Nuvoloso 18 5 42 1009 10 O/SO 16.7
Ieri h: 20:50 molto_nuvoloso Molto Nuvoloso 19 4 37 1009 10 O/SO 20.3
Ieri h: 20:20 nuvoloso Nuvoloso 18 4 39 1009 10 SO 14.8
Ieri h: 19:50 poco_nuvoloso Poco Nuvoloso 20 6 39 1008 10 O/SO 14.8
Ieri h: 19:20 poco_nuvoloso Poco Nuvoloso 18 13 72 1008 10 E 13
Ieri h: 18:50 poco_nuvoloso Poco Nuvoloso 18 12 67 1009 10 E 16.7
Ieri h: 18:20 poco_nuvoloso Poco Nuvoloso 17 12 72 1009 10 E/SE 16.7
Ieri h: 17:50 poco_nuvoloso Poco Nuvoloso 18 11 63 1009 10 E/SE 20.3
Ieri h: 17:20 poco_nuvoloso Poco Nuvoloso 17 12 72 1009 10 E 16.7
Ieri h: 16:50 poco_nuvoloso Poco Nuvoloso 18 11 63 1010 10 E 16.7
Ieri h: 16:20 poco_nuvoloso Poco Nuvoloso 18 12 67 1010 10 E/SE 16.7
Ieri h: 15:50 poco_nuvoloso Poco Nuvoloso 18 11 63 1010 10 E 14.8
Ieri h: 15:20 poco_nuvoloso Poco Nuvoloso 17 11 67 1010 10 E 16.7
Ieri h: 14:50 poco_nuvoloso Poco Nuvoloso 18 12 67 1010 10 E 14.8
Ieri h: 14:20 poco_nuvoloso Poco Nuvoloso 17 11 67 1011 10 E/NE 14.8
Ieri h: 13:50 poco_nuvoloso Poco Nuvoloso 17 11 67 1011 10 E/NE 16.7
Ieri h: 13:20 poco_nuvoloso Poco Nuvoloso 18 11 63 1011 10 E/NE 14.8
Ieri h: 12:50 poco_nuvoloso Poco Nuvoloso 17 10 63 1011 10 E/NE 14.8
Ieri h: 12:20 poco_nuvoloso Poco Nuvoloso 18 11 63 1012 10 NE 14.8
Ieri h: 11:50 poco_nuvoloso Poco Nuvoloso 17 10 63 1012 10 N/NE 14.8
Ieri h: 11:20 poco_nuvoloso Poco Nuvoloso 17 11 67 1012 10 N/NE 14.8
Ieri h: 10:50 poco_nuvoloso Poco Nuvoloso 17 11 67 1011 10 N/NE 14.8
Ieri h: 10:20 nuvoloso Nuvoloso 16 11 72 1011 10 N 14.8
Ieri h: 09:50 poco_nuvoloso Poco Nuvoloso 17 11 67 1011 10 N 9.3
Ieri h: 09:20 poco_nuvoloso Poco Nuvoloso 17 10 63 1011 10 NO 13
Ieri h: 08:50 sereno Sereno 16 10 67 1011 10 O/NO 14.8
Ieri h: 08:20 sereno Sereno 15 10 72 1011 10 O/NO 14.8
Ieri h: 07:50 sereno Sereno 15 10 72 1011 10 O/NO 14.8
Ieri h: 07:20 poco_nuvoloso Poco Nuvoloso 14 10 76 1011 10 O 11.1
Ieri h: 06:50 coperto Coperto 13 10 81 1011 10 O 7.4
Ieri h: 06:20 molto_nuvoloso Molto Nuvoloso 12 10 87 1011 10 O 9.3
Ieri h: 05:50 molto_nuvoloso Molto Nuvoloso 12 10 87 1010 10 O 9.3
Ieri h: 05:20 molto_nuvoloso Molto Nuvoloso 12 10 87 1010 10 O 11.1
Ieri h: 04:50 molto_nuvoloso Molto Nuvoloso 12 10 87 1010 10 O 11.1
Ieri h: 04:20 coperto Coperto 12 10 87 1010 10 N 3.7
Ieri h: 03:50 coperto Coperto 12 10 87 1010 10 SO 7.4
Ieri h: 03:20 coperto Coperto 12 11 93 1010 10 N 5.5
Ieri h: 02:50 molto_nuvoloso Molto Nuvoloso 12 11 93 1010 10 N 3.7
Ieri h: 02:20 molto_nuvoloso Molto Nuvoloso 12 11 93 1010 10 N 5.5
Ieri h: 01:50 molto_nuvoloso Molto Nuvoloso 12 11 93 1010 10 O 7.4